Quick links : Home Page : Contact Us : Index : Site Map : Search Site : Ephemerides


P/2008 Q2 (Ory)

Orbital Elements

The following orbital elements are taken from MPC 64115:
P/2008 Q2 (Ory)
Epoch 2008 Oct. 21.0 TT = JDT 2454760.5
T 2008 Oct. 19.0016 TT                                  MPC
q   1.382328             (2000.0)            P               Q
n   0.1688373      Peri.  329.5830      +0.8629576      -0.5035341
a   3.242080       Node    60.7088      +0.4727248      +0.7752796
e   0.573629       Incl.    2.7553      +0.1784250      +0.3813070
P   5.84
From 581 observations 2008 Aug. 27-Nov. 9, mean residual 0".5.
Elements are also available for the current standard epoch:
P/2008 Q2 (Ory)
Epoch 2008 Nov. 30.0 TT = JDT 2454800.5
T 2008 Oct. 19.0057 TT                                  MPC
q   1.382335             (2000.0)            P               Q
n   0.1688253      Peri.  329.5862      +0.8629305      -0.5035805
a   3.242234       Node    60.7087      +0.4727665      +0.7752541
e   0.573647       Incl.    2.7553      +0.1784456      +0.3812974
P   5.84
An explanation of the orbital elements is available.

These orbital elements are also available in forms suitable for loading into a number of popular planetarium-type software programs.


Ephemeris

The following ephemeris is at intervals of five days. A daily ephemeris covering the same time interval is also available.

Personalized ephemerides for this (and other) objects may be generated using the Minor Planet & Comet Ephemeris Service.

Recent magnitude estimates for this comet (as reported to the ICQ) may be available.

Date    TT    R. A. (2000) Decl.     Delta      r     Elong.  Phase   m1    m2

Back to Observable Comets

MPC CBAT ICQ

Valid HTML 4.01!